Location: �ilina
(49.3074°N, 18.7654°E)
Time: 08:49:51
(UTC+02:00)

ISS - Visible Passes

Search period start: 13 May 2021 00:00
Search period end: 23 May 2021 00:00
Orbit: 417 x 422 km, 51.6° (Epoch: 12 May)

Date Brightness Start Highest point End Pass type
(mag) Time Alt. Az. Time Alt. Az. Time Alt. Az.
13 May -2.0 00:32:07 26° ENE 00:32:07 26° ENE 00:33:43 10° ENE visible
13 May -3.1 02:05:02 18° WNW 02:07:22 56° N 02:10:43 10° E visible
13 May -3.8 03:40:55 10° WNW 03:44:17 70° SSW 03:47:39 10° ESE visible
13 May -1.3 23:45:45 14° ENE 23:45:45 14° ENE 23:46:17 10° ENE visible
14 May -3.1 01:18:38 33° WNW 01:19:52 55° N 01:23:12 10° ENE visible
14 May -3.8 02:53:28 10° WNW 02:56:51 89° N 03:00:15 10° ESE visible
14 May -1.9 21:17:29 10° SSE 21:19:13 13° SE 21:20:56 10° ESE visible
14 May -3.8 22:52:10 10° SW 22:55:29 61° SSE 22:58:49 10° ENE visible
15 May -3.2 00:29:02 10° W 00:32:22 58° N 00:35:43 10° ENE visible
15 May -3.6 02:06:01 10° WNW 02:09:24 72° NNE 02:12:47 10° E visible
15 May -3.1 03:42:58 10° W 03:46:05 34° SSW 03:49:11 10° SSE visible
15 May -3.4 22:04:55 10° SW 22:08:07 42° SSE 22:11:20 10° ENE visible
15 May -3.4 23:41:31 10° W 23:44:52 65° N 23:48:14 10° ENE visible
16 May -3.3 01:18:34 10° WNW 01:21:55 61° N 01:25:16 10° E visible
16 May -3.6 02:55:27 10° WNW 02:58:44 49° SSW 03:02:00 10° SE visible
16 May -2.9 21:17:49 10° SSW 21:20:47 29° SE 21:23:45 10° E visible
16 May -3.7 22:54:01 10° WSW 22:57:24 78° NNW 23:00:47 10° ENE visible
17 May -3.1 00:31:05 10° WNW 00:34:25 56° N 00:37:45 10° E visible
17 May -3.9 02:07:59 10° WNW 02:11:20 69° SSW 02:14:42 10° ESE visible
17 May -2.1 03:45:32 10° W 03:47:41 16° SW 03:49:49 10° S visible
17 May -3.9 22:06:35 10° WSW 22:09:57 83° SSE 22:13:20 10° ENE visible
17 May -3.1 23:43:35 10° W 23:46:55 55° N 23:50:03 11° ENE visible
18 May -3.0 01:20:31 10° WNW 01:22:56 44° WNW 01:22:56 44° WNW visible
18 May -3.8 21:19:12 10° SW 21:22:31 61° SSE 21:25:52 10° ENE visible
18 May -3.1 22:56:04 10° W 22:59:24 57° N 23:02:45 10° ENE visible
19 May -3.6 00:33:03 10° WNW 00:36:26 72° NNE 00:36:32 71° NNE visible
19 May -3.3 22:08:33 10° W 22:11:55 65° N 22:15:16 10° ENE visible
19 May -3.3 23:45:36 10° WNW 23:48:57 61° N 23:50:22 31° E visible
20 May -1.5 01:22:29 10° WNW 01:23:17 16° W 01:23:17 16° W visible
20 May -3.6 21:21:03 10° WSW 21:24:26 77° NNW 21:27:48 10° ENE visible
20 May -3.1 22:58:07 10° WNW 23:01:27 56° N 23:04:17 13° E visible
21 May -2.8 00:35:00 10° WNW 00:37:13 37° W 00:37:13 37° W visible
21 May -3.0 22:10:37 10° W 22:13:56 55° N 22:17:15 10° ENE visible
21 May -3.9 23:47:32 10° WNW 23:50:56 89° NE 23:51:11 75° ESE visible
22 May -3.1 21:23:05 10° W 21:26:25 57° N 21:29:46 10° ENE visible
22 May -3.6 23:00:05 10° WNW 23:03:27 72° NNE 23:05:12 26° E visible
